Location: Clyde
(45.1830°S, 169.3170°E)
Time: 21:58:04
(UTC+12:00)

Meteor 1-25 Rocket - Pass Details

Date: 24 January 2019
Orbit: 837 x 891 km, 81.2° (Epoch: 21 April)

Event Time Altitude Azimuth Distance (km) Brightness Sun altitude
Rises 23:14:07 0° 189° (S) 3,519 8.5 -16.0°
Reaches altitude 10° 23:16:36 10° 186° (S) 2,579 7.6 -16.2°
Maximum altitude 23:22:28 68° 103° (ESE) 968 4.4 -16.9°
Enters shadow 23:25:44 27° 26° (NNE) 1,644 5.1 -17.2°
